Weather History for Bedford, MA

Change the Weather History Date:

Saturday, November 12, 2011

  Actual Average Record
Temperature  
Mean Temperature 41 °F -  
Max Temperature 52 °F 49 °F 68 °F (2012)
Min Temperature 30 °F 32 °F 15 °F (1976)
Degree Days  
Heating Degree Days 24    
Moisture  
Dew Point 28 °F    
Average Humidity 57    
Maximum Humidity 82    
Minimum Humidity 32    
Precipitation  
Precipitation 0.00 in - - ()
Sea Level Pressure  
Sea Level Pressure 30.04 in    
Wind  
Wind Speed 8 mph (SW)    
Max Wind Speed 21 mph    
Max Gust Speed 30 mph    
Visibility 10 miles    
Events      
Averages and records for this station are not official NWS values.
T = Trace of Precipitation, MM = Missing Value Source: NWS Daily Summary

Daily Weather History Graph

Daily Weather History Graph

Search for Another Location

Airport:

Trip Planner

Search our weather history database for the weather conditions in past years. The results will help you decide how hot, cold, wet, or windy it might be!

Date:

Astronomy

Nov. 12, 2011 Rise Set
Actual Time 6:32 AM EST 4:25 PM EST
Civil Twilight 6:02 AM EST 4:55 PM EST
Nautical Twilight 5:28 AM EST 5:29 PM EST
Astronomical Twilight 4:55 AM EST 6:02 PM EST
Moon 5:37 PM EST (11/12) 8:13 AM EST (11/12)
Length of Visible Light 10h 53m
Length of Day
9h 53m
Full, 97% of the Moon is Illuminated
Nov 12
Full
Nov 18
Last Quarter
Nov 25
New
Dec 2
First Quarter
Dec 10
Full

Hourly Weather History & Observations

Time (EST) Temp. Windchill Dew Point Humidity Pressure Visibility Wind Dir Wind Speed Gust Speed Precip Events Conditions
12:56 AM 37.0 °F 33.3 °F 28.0 °F 70% 29.91 in 10.0 mi WSW 4.6 mph - N/A   Clear
1:56 AM 37.0 °F 31.6 °F 26.1 °F 65% 29.96 in 10.0 mi WSW 6.9 mph - N/A   Clear
2:56 AM 37.0 °F 28.9 °F 26.1 °F 65% 29.98 in 10.0 mi WSW 12.7 mph - N/A   Clear
3:56 AM 35.1 °F 29.3 °F 27.0 °F 72% 30.01 in 10.0 mi WSW 6.9 mph - N/A   Clear
4:56 AM 34.0 °F 29.8 °F 26.1 °F 73% 30.03 in 10.0 mi SW 4.6 mph - N/A   Clear
5:56 AM 30.9 °F - 26.1 °F 82% 30.05 in 10.0 mi Calm Calm - N/A   Clear
6:56 AM 34.0 °F 28.8 °F 28.0 °F 79% 30.07 in 10.0 mi SSW 5.8 mph - N/A   Partly Cloudy
7:56 AM 37.4 °F 30.3 °F 28.4 °F 70% 30.04 in 10.0 mi SW 10.4 mph - N/A   Clear
8:56 AM 41.0 °F 34.3 °F 30.0 °F 65% 30.08 in 10.0 mi SW 11.5 mph - N/A   Clear
9:56 AM 46.0 °F 41.0 °F 28.9 °F 51% 30.09 in 10.0 mi WSW 10.4 mph - N/A   Clear
10:56 AM 48.9 °F - 28.0 °F 44% 30.07 in 10.0 mi SW 10.4 mph 19.6 mph N/A   Mostly Cloudy
11:56 AM 51.1 °F - 25.0 °F 36% 30.05 in 10.0 mi SW 20.7 mph 29.9 mph N/A   Scattered Clouds
12:56 PM 52.0 °F - 23.0 °F 32% 30.03 in 10.0 mi SW 15.0 mph 23.0 mph N/A   Clear
1:56 PM 51.1 °F - 25.0 °F 36% 30.01 in 10.0 mi SW 12.7 mph 24.2 mph N/A   Clear
2:56 PM 51.1 °F - 28.9 °F 43% 30.01 in 10.0 mi SW 10.4 mph 25.3 mph N/A   Clear
3:56 PM 50.0 °F - 28.4 °F 43% 29.96 in 10.0 mi SW 17.3 mph 24.2 mph N/A   Clear
4:56 PM 48.9 °F - 28.0 °F 44% 30.01 in 10.0 mi SW 9.2 mph 17.3 mph N/A   Clear
5:56 PM 46.4 °F 42.9 °F 28.4 °F 50% 29.99 in 10.0 mi SW 6.9 mph - N/A   Clear
6:56 PM 46.0 °F 41.4 °F 28.9 °F 51% 30.06 in 10.0 mi SW 9.2 mph - N/A   Clear
7:56 PM 45.0 °F 41.8 °F 30.9 °F 58% 30.07 in 10.0 mi SW 5.8 mph - N/A   Clear
8:56 PM 44.1 °F 41.5 °F 30.9 °F 60% 30.09 in 10.0 mi SSW 4.6 mph - N/A   Clear
9:56 PM 44.6 °F 40.7 °F 32.0 °F 61% 30.07 in 10.0 mi WSW 6.9 mph - N/A   Clear
10:56 PM 46.9 °F - 30.9 °F 54% 30.12 in 10.0 mi SW 5.8 mph - N/A   Clear
11:56 PM 41.0 °F - 30.9 °F 67% 30.13 in 10.0 mi Calm Calm - N/A   Clear